Meteo pe oră la Abaran

Astăzi, 5 August, Joi

Timp Temperatura Precipitaţii Vânt Presiune Umiditate
00:00 +26°C° 0 mm 1 m/s 728 mmHg 43%
01:00 +26°C° 0 mm 1 m/s 728 mmHg 46%
02:00 +25°C° 0 mm 1 m/s 727 mmHg 49%
03:00 +24°C° 0 mm 1 m/s 727 mmHg 51%
04:00 +24°C° 0 mm 1 m/s 727 mmHg 53%
05:00 +24°C° 0 mm 1 m/s 728 mmHg 55%
06:00 +24°C° 0 mm 1 m/s 728 mmHg 57%
07:00 +26°C° 0 mm 1 m/s 728 mmHg 53%
08:00 +28°C° 0 mm 2 m/s 728 mmHg 49%
09:00 +29°C° 0 mm 2 m/s 729 mmHg 44%
10:00 +31°C° 0 mm 2 m/s 728 mmHg 39%
11:00 +34°C° 0 mm 3 m/s 728 mmHg 34%
12:00 +36°C° 0 mm 4 m/s 728 mmHg 29%
13:00 +36°C° 0 mm 4 m/s 727 mmHg 28%
14:00 +37°C° 0 mm 5 m/s 727 mmHg 27%
15:00 +37°C° 0 mm 5 m/s 726 mmHg 26%
16:00 +36°C° 0 mm 5 m/s 726 mmHg 29%
17:00 +35°C° 0 mm 5 m/s 726 mmHg 32%
18:00 +34°C° 0 mm 4 m/s 725 mmHg 36%
19:00 +31°C° 0 mm 3 m/s 726 mmHg 41%
20:00 +29°C° 0 mm 2 m/s 726 mmHg 46%
21:00 +28°C° 0 mm 1 m/s 726 mmHg 51%
22:00 +27°C° 0 mm 1 m/s 726 mmHg 54%
23:00 +26°C° 0 mm 1 m/s 726 mmHg 56%

Mâine, 6 August, Vineri

Timp Temperatura Precipitaţii Vânt Presiune Umiditate
00:00 +23°C° 0 mm 0 m/s 725 mmHg 59%
01:00 +23°C° 0 mm 0 m/s 725 mmHg 58%
02:00 +23°C° 0 mm 0 m/s 725 mmHg 57%
03:00 +25°C° 0 mm 1 m/s 724 mmHg 57%
04:00 +25°C° 0 mm 1 m/s 724 mmHg 54%
05:00 +26°C° 0 mm 1 m/s 724 mmHg 51%
06:00 +26°C° 0 mm 1 m/s 724 mmHg 48%
07:00 +29°C° 0 mm 1 m/s 725 mmHg 39%
08:00 +29°C° 0 mm 0 m/s 725 mmHg 31%
09:00 +32°C° 0 mm 0 m/s 725 mmHg 22%
10:00 +36°C° 0 mm 2 m/s 725 mmHg 21%
11:00 +38°C° 0 mm 3 m/s 725 mmHg 20%
12:00 +40°C° 0 mm 5 m/s 724 mmHg 19%
13:00 +39°C° 0 mm 5 m/s 724 mmHg 22%
14:00 +39°C° 0 mm 6 m/s 723 mmHg 26%
15:00 +38°C° 0 mm 6 m/s 723 mmHg 29%
16:00 +36°C° 0 mm 6 m/s 723 mmHg 33%
17:00 +34°C° 0 mm 5 m/s 723 mmHg 37%
18:00 +33°C° 0 mm 4 m/s 722 mmHg 41%
19:00 +30°C° 0 mm 3 m/s 722 mmHg 48%
20:00 +29°C° 0 mm 2 m/s 722 mmHg 55%
21:00 +27°C° 0 mm 1 m/s 722 mmHg 61%
22:00 +26°C° 0 mm 1 m/s 722 mmHg 63%
23:00 +24°C° 0 mm 0 m/s 722 mmHg 64%

Poimâine, 7 August, Sâmbătă

Timp Temperatura Precipitaţii Vânt Presiune Umiditate
00:00 +23°C° 0 mm 0 m/s 722 mmHg 66%
01:00 +23°C° 0 mm 0 m/s 722 mmHg 64%
02:00 +25°C° 0 mm 1 m/s 722 mmHg 62%
03:00 +25°C° 0 mm 1 m/s 721 mmHg 60%
04:00 +25°C° 0 mm 1 m/s 721 mmHg 55%
05:00 +25°C° 0 mm 1 m/s 722 mmHg 50%
06:00 +26°C° 0 mm 1 m/s 722 mmHg 44%
07:00 +28°C° 0 mm 2 m/s 722 mmHg 36%
08:00 +30°C° 0 mm 2 m/s 722 mmHg 28%
09:00 +32°C° 0 mm 2 m/s 723 mmHg 20%
10:00 +35°C° 0 mm 3 m/s 723 mmHg 18%
11:00 +36°C° 0 mm 3 m/s 723 mmHg 15%
12:00 +38°C° 0 mm 3 m/s 723 mmHg 13%
13:00 +38°C° 0 mm 4 m/s 722 mmHg 14%
14:00 +40°C° 0 mm 5 m/s 722 mmHg 15%
15:00 +40°C° 0 mm 6 m/s 722 mmHg 15%
16:00 +39°C° 0 mm 5 m/s 722 mmHg 18%
17:00 +37°C° 0 mm 4 m/s 723 mmHg 21%
18:00 +36°C° 0 mm 4 m/s 723 mmHg 24%
19:00 +34°C° 0 mm 3 m/s 723 mmHg 27%
20:00 +31°C° 0 mm 2 m/s 724 mmHg 29%
21:00 +29°C° 0 mm 2 m/s 724 mmHg 32%
22:00 +29°C° 0 mm 2 m/s 724 mmHg 30%
23:00 +28°C° 0 mm 2 m/s 724 mmHg 28%

8 August, Duminică

Timp Temperatura Precipitaţii Vânt Presiune Umiditate
00:00 +27°C° 0 mm 2 m/s 725 mmHg 26%
01:00 +26°C° 0 mm 2 m/s 725 mmHg 27%
02:00 +26°C° 0 mm 2 m/s 724 mmHg 27%
03:00 +25°C° 0 mm 2 m/s 724 mmHg 28%
04:00 +25°C° 0 mm 3 m/s 725 mmHg 29%
05:00 +25°C° 0 mm 3 m/s 725 mmHg 29%
06:00 +25°C° 0 mm 3 m/s 725 mmHg 30%
07:00 +26°C° 0 mm 3 m/s 726 mmHg 32%
08:00 +28°C° 0 mm 3 m/s 726 mmHg 34%
09:00 +30°C° 0 mm 3 m/s 727 mmHg 37%
10:00 +31°C° 0 mm 3 m/s 727 mmHg 34%
11:00 +33°C° 0 mm 3 m/s 727 mmHg 31%
12:00 +35°C° 0 mm 3 m/s 727 mmHg 28%
13:00 +34°C° 0 mm 4 m/s 727 mmHg 33%
14:00 +34°C° 0 mm 6 m/s 727 mmHg 37%
15:00 +34°C° 0 mm 8 m/s 727 mmHg 42%
16:00 +32°C° 0 mm 7 m/s 727 mmHg 49%
17:00 +30°C° 0 mm 7 m/s 727 mmHg 57%
18:00 +28°C° 0 mm 6 m/s 728 mmHg 65%
19:00 +27°C° 0 mm 5 m/s 728 mmHg 69%
20:00 +26°C° 0 mm 4 m/s 729 mmHg 74%
21:00 +25°C° 0 mm 3 m/s 729 mmHg 78%
22:00 +25°C° 0 mm 2 m/s 729 mmHg 80%
23:00 +24°C° 0 mm 2 m/s 729 mmHg 82%

9 August, Luni

Timp Temperatura Precipitaţii Vânt Presiune Umiditate
00:00 +24°C° 0 mm 2 m/s 729 mmHg 84%
01:00 +24°C° 0 mm 2 m/s 729 mmHg 85%
02:00 +23°C° 0 mm 1 m/s 729 mmHg 87%
03:00 +23°C° 0 mm 1 m/s 729 mmHg 88%
04:00 +23°C° 0 mm 1 m/s 729 mmHg 87%
05:00 +23°C° 0 mm 1 m/s 730 mmHg 86%
06:00 +23°C° 0 mm 1 m/s 730 mmHg 86%
07:00 +25°C° 0 mm 2 m/s 730 mmHg 77%
08:00 +26°C° 0 mm 2 m/s 731 mmHg 69%
09:00 +27°C° 0 mm 3 m/s 731 mmHg 61%
10:00 +28°C° 0 mm 4 m/s 731 mmHg 55%
11:00 +30°C° 0 mm 5 m/s 731 mmHg 50%
12:00 +32°C° 0 mm 5 m/s 731 mmHg 45%
13:00 +32°C° 0 mm 5 m/s 731 mmHg 45%
14:00 +32°C° 0 mm 6 m/s 731 mmHg 45%
15:00 +32°C° 0 mm 6 m/s 730 mmHg 45%
16:00 +30°C° 0 mm 5 m/s 730 mmHg 49%
17:00 +29°C° 0 mm 5 m/s 730 mmHg 53%
18:00 +28°C° 0 mm 4 m/s 730 mmHg 57%
19:00 +27°C° 0 mm 4 m/s 730 mmHg 62%
20:00 +26°C° 0 mm 3 m/s 731 mmHg 66%
21:00 +25°C° 0 mm 2 m/s 731 mmHg 71%
22:00 +24°C° 0 mm 2 m/s 731 mmHg 73%
23:00 +24°C° 0 mm 1 m/s 731 mmHg 75%

10 August, Marţi

Timp Temperatura Precipitaţii Vânt Presiune Umiditate
00:00 +23°C° 0 mm 1 m/s 731 mmHg 76%
01:00 +23°C° 0 mm 1 m/s 731 mmHg 78%
02:00 +23°C° 0 mm 1 m/s 731 mmHg 79%
03:00 +22°C° 0 mm 1 m/s 731 mmHg 81%
04:00 +23°C° 0 mm 1 m/s 731 mmHg 79%
05:00 +23°C° 0 mm 1 m/s 731 mmHg 77%
06:00 +23°C° 0 mm 1 m/s 731 mmHg 75%
07:00 +25°C° 0 mm 1 m/s 731 mmHg 66%
08:00 +26°C° 0 mm 1 m/s 731 mmHg 57%
09:00 +28°C° 0 mm 2 m/s 732 mmHg 48%
10:00 +30°C° 0 mm 3 m/s 732 mmHg 42%
11:00 +32°C° 0 mm 4 m/s 731 mmHg 36%
12:00 +34°C° 0 mm 5 m/s 731 mmHg 29%
13:00 +34°C° 0 mm 5 m/s 731 mmHg 29%
14:00 +35°C° 0 mm 5 m/s 731 mmHg 28%
15:00 +35°C° 0 mm 5 m/s 730 mmHg 27%
16:00 +34°C° 0 mm 5 m/s 730 mmHg 30%
17:00 +33°C° 0 mm 5 m/s 730 mmHg 33%
18:00 +32°C° 0 mm 4 m/s 730 mmHg 36%
19:00 +29°C° 0 mm 3 m/s 730 mmHg 42%
20:00 +27°C° 0 mm 2 m/s 730 mmHg 49%
21:00 +25°C° 0 mm 1 m/s 730 mmHg 55%
22:00 +25°C° 0 mm 1 m/s 730 mmHg 58%
23:00 +24°C° 0 mm 1 m/s 730 mmHg 61%
Arată mai mult

Formular de consimțământ

Meteoprog și furnizorii noștri de servicii pot stoca și accesa date personale, precum cookies, identificatori de dispozitiv sau alte tehnologii similare pe dispozitivul dumneavoastră și procesa astfel de date pentru a personaliza conținutul și reclamele, dar și pentru a oferi caracteristici de social media și pentru a analiza traficul.

  • Stocarea și/sau accesarea informațiilor pe dispozitivul dumneavoastră

    Cookies, identificatori de dispozitiv sau alte informații pot fi stocate sau accesate pe dispozitiv în scopurile indicate mai sus.

  • Reclame și conținut personalizat, evaluarea reclamelor și a conținutului, informații despre audiențe și dezvoltarea produselor

    Reclamele și conținutul pot fi personalizate pe baza unui profil. Pot fi adăugate date suplimentare pentru a personaliza mai bine reclamele și conținutul. Performanța reclamelor și conținutului poate fi măsurată. Pot fi obținute informații despre utilizatorii care au văzut reclamele și conținutul. Aceste date pot fi utilizate pentru a dezvolta sau îmbunătăți experiența utilizatorilor, sistemele și software-ul.

Dând clic pe ‘Sunt de acord’, permiteți utilizarea cookie-urilor menționate, a identificatorilor de dispozitiv, balizelor web sau altor tehnologii similare. Setările pot fi modificate din browser-ul dispozitivului dumneavoastră.

În anumite scopuri, interesele legitime pot prima asupra consimțământului. Puteți citi mai multe informații în acest sens în Politica privind Confidențialitatea Datelor și Cookie.